Location: Cactus School
(34.5700°N, 118.0931°W)
Time: 02:59:42
(UTC-07:00)

Courier 1B - Pass Details

Date: 23 April 2024
Orbit: 962 x 1208 km, 28.3° (Epoch: 23 May)

Event Time Altitude Azimuth Distance (km) Brightness Sun altitude
Exits shadow 03:54:35 51° 201° (SSW) 1,353 7.8 -25.6°
Maximum altitude 03:55:13 52° 184° (S) 1,326 7.9 -25.5°
Drops below altitude 10° 04:01:57 10° 110° (ESE) 2,843 10.3 -24.4°
Sets 04:04:38 0° 105° (ESE) 3,761 11.1 -24.0°
